Regional Weather Roundup
Issued by NWS

Home | Current Version | Previous Version | Graphics & Text | Print | Product List | Glossary On
Versions: 1 2 3 4 5 6 7 8 9 10 11 12 13 14 15 16 17 18 19 20 21 22 23 24 25 26 27 28 29 30 31 32 33 34 35 36 37 38 39 40 41 42 43 44 45 46 47 48 49 50
000
ASUS45 KCYS 230810
RWRWY

WYOMING REGIONAL WEATHER ROUNDUP
NATIONAL WEATHER SERVICE CHEYENNE WY
200 AM MDT SAT AUG 23 2014

NOTE:  "FAIR" INDICATES FEW OR NO CLOUDS BELOW 12,000 FEET
WITH NO SIGNIFICANT WEATHER AND/OR OBSTRUCTIONS TO VISIBILITY.

WYZ001-230900-
YELLOWSTONE NATIONAL PARK

CITY           SKY/WX    TMP DP  RH WIND       PRES   REMARKS
LK YELLOWSTONE   N/A     44  42  93 W3        30.14S
W YELLOWSTONE  NOT AVBL

$$
WYZ002>013-054>058-071-098>099-230900-
NORTHERN WYOMING

CITY           SKY/WX    TMP DP  RH WIND       PRES   REMARKS
JACKSON        CLOUDY    46  45  93 CALM      30.09F
CODY           CLOUDY    54  52  94 N3        30.01S
GREYBULL       CLOUDY    60  58  92 W7        29.94F
WORLAND        LGT RAIN  58  56  93 W6        29.96F FOG
SHERIDAN       CLOUDY    59  57  93 N3        29.96F
BUFFALO        CLOUDY    58  56  93 S3        30.01F
GILLETTE       RAIN      59  58  96 E10       29.96F FOG
HULETT         FOG       61  61 100 MISG      30.00  VSB 1
NEWCASTLE      LGT RAIN  63  55  77 E8        29.97

$$
WYZ014>020-022>026-101>103-230900-
CENTRAL WYOMING

CITY           SKY/WX    TMP DP  RH WIND       PRES   REMARKS
BIG PINEY      CLOUDY    46  44  93 CALM      30.12F
PINEDALE       CLOUDY    45  45 100 SW7       30.13R
DUBOIS         PTSUNNY   45  41  87 NW10      30.08S
LANDER         LGT RAIN  53  52  96 SE6       30.00F FOG
RIVERTON       LGT RAIN  54  51  90 W8        30.02F
CASPER         CLOUDY    58  56  93 N3        29.98F
DOUGLAS        CLOUDY    61  56  83 SE10      29.96F

$$
WYZ021-027>030-104>119-230900-
SOUTHERN WYOMING

CITY           SKY/WX    TMP DP  RH WIND       PRES   REMARKS
EVANSTON       LGT RAIN  46  43  89 NE7       30.13F
KEMMERER       CLOUDY    45  43  93 SW3       30.14F
FORT BRIDGER   CLOUDY    48  48 100 NW6       30.16S
ROCK SPRINGS   CLOUDY    46  44  93 SW10      30.13S
DIXON          CLOUDY    51  47  85 W5        30.15R
RAWLINS        CLOUDY    49  44  83 W21G28    30.08S
SARATOGA       CLOUDY    50  46  87 MISG      30.10R
LARAMIE        MOCLDY    53  51  93 S9        30.07F
CHEYENNE       CLOUDY    57  55  93 SW10      30.04F
TORRINGTON     LGT RAIN  61  59  93 SE7       29.96F
PINE BLUFFS    PTSUNNY   57  55  94 S6        30.02F

$$



USA.gov is the U.S. government's official web portal to all federal, state and local government web resources and services.